EW6390 Weather Reports


Display with metric or nautical units.
time (UTC)temp
F
wind
direction
speed
MPH
gust
MPH
rain 1hr
in
rain 24hr
in
rain mn
in
humidity
%
barometer
mb
20260504023446 55 247 0.0 0.0 0.00 0.00 0.00 69 1016.5
20260504022950 56 247 0.0 0.0 0.00 0.00 0.00 67 1016.4
20260504022944 56 247 0.0 0.0 0.00 0.00 0.00 69 1016.4
20260504022604 56 247 0.0 0.0 0.00 0.00 0.00 66 1016.3
20260504021443 56 247 0.0 0.0 0.00 0.00 0.00 66 1016.4
20260504020943 57 247 0.0 0.0 0.00 0.00 0.00 63 1016.3
20260504020444 57 247 0.0 0.0 0.00 0.00 0.00 64 1016.3
20260504015941 57 247 0.0 0.0 0.00 0.00 0.00 63 1016.2
20260504015441 57 247 0.0 0.0 0.00 0.00 0.00 63 1016.1
20260504014940 57 247 0.0 0.0 0.00 0.00 0.00 62 1016.1
20260504014442 58 247 0.0 0.0 0.00 0.00 0.00 61 1016.0
20260504013940 58 247 0.0 0.0 0.00 0.00 0.00 62 1015.9
20260504013440 58 247 0.0 0.0 0.00 0.00 0.00 59 1015.9
20260504012944 58 247 0.0 0.0 0.00 0.00 0.00 57 1015.9
20260504012938 58 247 0.0 0.0 0.00 0.00 0.00 59 1015.9
20260504011939 58 247 0.0 0.0 0.00 0.00 0.00 57 1015.9
20260504011440 58 247 0.0 0.0 0.00 0.00 0.00 57 1015.9
20260504010939 59 247 0.0 0.0 0.00 0.00 0.00 59 1015.9
20260504010440 59 247 0.0 0.0 0.00 0.00 0.00 56 1015.8
20260504005940 59 247 0.0 0.0 0.00 0.00 0.00 60 1015.8
20260504005440 60 247 0.0 0.0 0.00 0.00 0.00 51 1015.8
20260504004939 60 247 0.0 0.0 0.00 0.00 0.00 56 1015.8
20260504004438 61 247 0.0 0.0 0.00 0.00 0.00 51 1015.7
20260504003943 62 247 0.0 0.0 0.00 0.00 0.00 54 1015.6
20260504003938 61 247 0.0 0.0 0.00 0.00 0.00 53 1015.6
20260504002939 62 247 0.0 0.0 0.00 0.00 0.00 45 1015.6
20260504002440 63 247 0.0 0.0 0.00 0.00 0.00 47 1015.5
20260504001939 63 247 0.0 0.0 0.00 0.00 0.00 49 1015.4
20260504001438 64 247 0.0 0.0 0.00 0.00 0.00 44 1015.4
20260504000938 64 247 0.0 0.0 0.00 0.00 0.00 41 1015.3
20260504000439 65 247 0.0 0.0 0.00 0.00 0.00 41 1015.4
20260503235939 65 247 0.0 0.0 0.00 0.00 0.00 41 1015.4
20260503235439 65 247 0.0 0.0 0.00 0.00 0.00 42 1015.4
20260503234938 66 247 0.0 1.0 0.00 0.00 0.00 41 1015.4
20260503234440 66 247 0.0 3.0 0.00 0.00 0.00 39 1015.4
20260503233943 66 248 0.0 2.0 0.00 0.00 0.00 38 1015.3
20260503233938 66 239 0.0 3.0 0.00 0.00 0.00 38 1015.3
20260503232940 67 234 1.0 4.0 0.00 0.00 0.00 39 1015.3
20260503232439 67 287 2.0 4.0 0.00 0.00 0.00 37 1015.3
20260503231938 67 249 1.0 4.0 0.00 0.00 0.00 37 1015.4
20260503231438 67 231 0.0 2.0 0.00 0.00 0.00 37 1015.4
20260503230939 67 250 0.0 3.0 0.00 0.00 0.00 36 1015.4
20260503230438 67 240 1.0 4.0 0.00 0.00 0.00 36 1015.5
20260503225939 67 245 1.0 4.0 0.00 0.00 0.00 36 1015.4
20260503225437 67 238 0.0 2.0 0.00 0.00 0.00 37 1015.5
20260503224936 67 235 1.0 4.0 0.00 0.00 0.00 36 1015.5
20260503224436 67 237 1.0 4.0 0.00 0.00 0.00 37 1015.5
20260503223939 67 244 2.0 5.0 0.00 0.00 0.00 36 1015.6
20260503223437 67 226 2.0 5.0 0.00 0.00 0.00 37 1015.6
20260503222936 67 264 1.0 5.0 0.00 0.00 0.00 36 1015.6
20260503222440 67 278 1.0 6.0 0.00 0.00 0.00 37 1015.6
20260503222435 67 246 1.0 6.0 0.00 0.00 0.00 37 1015.6
20260503221439 68 234 1.0 5.0 0.00 0.00 0.00 38 1015.6
20260503221434 67 226 1.0 5.0 0.00 0.00 0.00 36 1015.5
20260503221056 67 125 0.0 2.0 0.00 0.00 0.00 38 1015.6
20260503215934 68 238 0.0 3.0 0.00 0.00 0.00 37 1015.7
20260503215434 68 238 1.0 4.0 0.00 0.00 0.00 38 1015.7
20260503214935 68 144 1.0 5.0 0.00 0.00 0.00 36 1015.7
20260503214432 68 250 1.0 6.0 0.00 0.00 0.00 37 1015.7
20260503213938 68 265 2.0 10.0 0.00 0.00 0.00 37 1015.8
20260503213932 68 196 1.0 6.0 0.00 0.00 0.00 34 1015.7
20260503212930 68 278 2.0 10.0 0.00 0.00 0.00 34 1015.8
20260503212430 68 275 3.0 7.0 0.00 0.00 0.00 35 1015.9
20260503211928 68 135 2.0 6.0 0.00 0.00 0.00 33 1015.8
20260503211428 68 249 2.0 9.0 0.00 0.00 0.00 35 1015.8
20260503210927 68 252 2.0 9.0 0.00 0.00 0.00 35 1015.9
20260503210424 68 288 1.0 6.0 0.00 0.00 0.00 35 1015.9
20260503205925 68 269 0.0 2.0 0.00 0.00 0.00 37 1015.9
20260503205429 68 226 2.0 9.0 0.00 0.00 0.00 34 1016.0
20260503205423 68 231 1.0 6.0 0.00 0.00 0.00 36 1015.9
20260503204422 68 231 2.0 9.0 0.00 0.00 0.00 36 1016.1
20260503203923 68 276 2.0 9.0 0.00 0.00 0.00 36 1016.1
20260503203423 68 233 2.0 10.0 0.00 0.00 0.00 34 1016.2
20260503202922 69 259 2.0 10.0 0.00 0.00 0.00 34 1016.3
20260503202422 69 231 2.0 7.0 0.00 0.00 0.00 36 1016.4
20260503201927 69 268 3.0 8.0 0.00 0.00 0.00 34 1016.7
20260503201923 69 252 1.0 7.0 0.00 0.00 0.00 34 1016.5
20260503201420 69 210 2.0 8.0 0.00 0.00 0.00 34 1016.6
20260503200420 69 252 2.0 8.0 0.00 0.00 0.00 34 1016.8
20260503195922 69 197 2.0 6.0 0.00 0.00 0.00 35 1016.9
20260503195425 69 226 3.0 7.0 0.00 0.00 0.00 34 1017.1
20260503195419 69 226 3.0 6.0 0.00 0.00 0.00 34 1017.0
20260503194421 69 241 3.0 8.0 0.00 0.00 0.00 33 1017.1
20260503193920 69 291 3.0 8.0 0.00 0.00 0.00 36 1017.1
20260503193420 69 227 2.0 5.0 0.00 0.00 0.00 34 1017.2
20260503192921 69 272 2.0 7.0 0.00 0.00 0.00 34 1017.3
20260503192425 69 240 1.0 3.0 0.00 0.00 0.00 36 1017.4
20260503192419 69 231 2.0 7.0 0.00 0.00 0.00 33 1017.4
20260503191418 69 274 1.0 3.0 0.00 0.00 0.00 35 1017.6
20260503190918 69 273 2.0 8.0 0.00 0.00 0.00 33 1017.7
20260503190417 69 217 2.0 8.0 0.00 0.00 0.00 37 1017.6
20260503185918 70 264 2.0 8.0 0.00 0.00 0.00 35 1017.7
20260503185425 69 229 2.0 12.0 0.00 0.00 0.00 34 1017.9
20260503185419 69 26 2.0 11.0 0.00 0.00 0.00 37 1017.8
20260503184918 68 238 3.0 12.0 0.00 0.00 0.00 35 1017.9
20260503183919 69 280 1.0 3.0 0.00 0.00 0.00 34 1017.9
20260503183416 69 272 1.0 4.0 0.00 0.00 0.00 34 1018.0
20260503182917 69 305 2.0 7.0 0.00 0.00 0.00 35 1018.0
20260503182415 68 262 3.0 11.0 0.00 0.00 0.00 34 1018.0
20260503181915 68 254 3.0 11.0 0.00 0.00 0.00 32 1018.1
20260503181414 69 243 2.0 9.0 0.00 0.00 0.00 32 1018.1
20260503180914 70 249 1.0 7.0 0.00 0.00 0.00 33 1018.1
20260503180414 70 212 1.0 8.0 0.00 0.00 0.00 37 1018.1
20260503175919 68 121 2.0 6.0 0.00 0.00 0.00 34 1018.3
20260503175914 69 237 2.0 8.0 0.00 0.00 0.00 37 1018.3
20260503174915 68 224 2.0 6.0 0.00 0.00 0.00 34 1018.3
20260503174411 69 276 2.0 3.0 0.00 0.00 0.00 36 1018.3
20260503173913 69 255 1.0 3.0 0.00 0.00 0.00 32 1018.4
20260503173412 68 266 2.0 10.0 0.00 0.00 0.00 33 1018.5
20260503172912 68 115 2.0 10.0 0.00 0.00 0.00 36 1018.7
20260503172412 69 258 1.0 5.0 0.00 0.00 0.00 36 1018.8
20260503171917 68 113 1.0 6.0 0.00 0.00 0.00 37 1019.0
20260503171912 69 219 1.0 3.0 0.00 0.00 0.00 34 1018.9
20260503170912 67 163 2.0 6.0 0.00 0.00 0.00 35 1019.0
20260503170412 67 270 2.0 5.0 0.00 0.00 0.00 39 1019.1
20260503150900 64 188 0.0 3.0 0.00 0.00 0.00 42 1020.1
20260503150401 64 221 0.0 3.0 0.00 0.00 0.00 43 1020.1
20260503131400 58 270 0.0 1.0 0.00 0.00 0.00 52 1019.8
20260503130400 58 134 0.0 0.0 0.00 0.00 0.00 54 1019.9
20260503110352 40 219 0.0 0.0 0.00 0.00 0.00 88 1018.9
20260503090353 43 219 0.0 0.0 0.00 0.01 0.00 82 1017.2
20260503090347 42 219 0.0 0.0 0.00 0.01 0.00 83 1017.3
20260503081345 45 219 0.0 0.0 0.00 0.01 0.00 75 1016.8
20260503080850 46 219 0.0 0.0 0.00 0.01 0.00 73 1016.8
20260503080845 46 219 0.0 0.0 0.00 0.01 0.00 74 1016.9
20260503080506 46 219 0.0 0.0 0.00 0.01 0.00 70 1016.9
20260503071844 49 219 0.0 0.0 0.00 0.01 0.00 65 1016.5
20260503071343 49 219 0.0 0.0 0.00 0.01 0.00 65 1016.3
20260503070844 49 219 0.0 0.0 0.00 0.01 0.00 65 1016.4
20260503070342 49 219 0.0 0.0 0.00 0.01 0.00 65 1016.2
20260503060342 49 240 0.0 0.0 0.00 0.01 0.00 67 1016.0
20260503054840 47 240 0.0 0.0 0.00 0.01 0.00 70 1016.1
20260503054340 46 240 0.0 0.0 0.00 0.01 0.00 73 1016.1
20260503053840 46 240 0.0 0.0 0.00 0.01 0.00 76 1016.1
20260503053340 46 240 0.0 0.0 0.00 0.01 0.00 79 1016.1
20260503052838 46 240 0.0 0.0 0.00 0.01 0.00 78 1016.1
20260503052340 46 240 0.0 0.0 0.00 0.01 0.00 78 1016.1
20260503051839 46 240 0.0 0.0 0.00 0.01 0.00 79 1016.1
20260503051339 46 240 0.0 0.0 0.00 0.01 0.00 79 1016.1
20260503050844 46 240 0.0 0.0 0.00 0.01 0.00 76 1016.0
20260503050839 46 240 0.0 0.0 0.00 0.01 0.00 78 1016.0
20260503045839 46 240 0.0 0.0 0.00 0.01 0.00 79 1016.1
20260503045343 46 240 0.0 0.0 0.00 0.01 0.00 78 1016.1
20260503045337 46 240 0.0 0.0 0.00 0.01 0.00 79 1016.1
20260503044336 46 240 0.0 0.0 0.00 0.01 0.00 78 1016.1
20260503043836 46 240 0.0 0.0 0.00 0.01 0.00 77 1016.1
20260503043334 46 240 0.0 0.0 0.00 0.01 0.00 77 1016.1
20260503042834 47 240 0.0 0.0 0.00 0.01 0.00 76 1016.1
20260503042333 47 240 0.0 0.0 0.00 0.01 0.00 75 1016.0
20260503041834 47 240 0.0 0.0 0.00 0.01 0.00 74 1016.0
20260503041338 47 240 0.0 0.0 0.00 0.01 0.00 73 1015.9
20260503041334 47 240 0.0 0.0 0.00 0.01 0.00 74 1016.0
20260503040332 47 240 0.0 0.0 0.00 0.01 0.00 72 1015.8
20260503035832 48 240 0.0 0.0 0.00 0.01 0.01 72 1015.8
20260503035332 48 240 0.0 0.0 0.00 0.01 0.01 73 1015.8
20260503034832 48 240 0.0 0.0 0.00 0.01 0.01 68 1015.6
20260503034338 49 240 0.0 0.0 0.00 0.01 0.01 68 1015.6
20260503034332 49 240 0.0 0.0 0.00 0.01 0.01 67 1015.6
20260503033332 49 240 0.0 0.0 0.00 0.01 0.01 69 1015.5
20260503032833 49 240 0.0 0.0 0.00 0.01 0.01 67 1015.5
20260503032333 50 240 0.0 0.0 0.00 0.01 0.01 63 1015.4
20260503031832 50 240 0.0 0.0 0.00 0.01 0.01 61 1015.4
20260503031333 50 240 0.0 0.0 0.00 0.01 0.01 64 1015.4
20260503030832 51 240 0.0 0.0 0.00 0.01 0.01 64 1015.3
20260503030334 51 240 0.0 0.0 0.00 0.01 0.01 63 1015.3
20260503025832 52 240 0.0 0.0 0.00 0.01 0.01 56 1015.2
20260503025334 52 240 0.0 0.0 0.00 0.01 0.01 58 1015.2
20260503024832 52 240 0.0 0.0 0.00 0.01 0.01 62 1015.1
20260503024340 53 240 0.0 0.0 0.00 0.01 0.01 58 1015.0
20260503024333 52 240 0.0 0.0 0.00 0.01 0.01 61 1015.1